Location: Unspecified
(0.0000°N, 0.0000°E)
Time: 17:34:13
(UTC+00:00)

Vanguard 3 - Visible Passes

Search period start: 29 April 2017 00:00
Search period end: 09 May 2017 00:00
Orbit: 508 x 3266 km, 33.4° (Epoch: 27 April)

Date Brightness Start Highest point End Pass type
(mag) Time Alt. Az. Time Alt. Az. Time Alt. Az.
29 Apr 7.3 05:20:19 10° SW 05:24:44 77° SE 05:32:00 10° ENE visible
29 Apr 10.1 18:56:13 10° WNW 19:12:07 43° SW 19:21:50 11° SSE visible
30 Apr 8.1 04:10:54 25° SSE 04:11:37 26° SE 04:16:04 10° E visible
30 Apr 10.2 20:01:10 10° W 20:11:14 21° SW 20:17:07 13° S visible
01 May 6.9 05:06:17 17° WSW 05:09:33 76° NW 05:16:04 10° NE visible
01 May 10.3 18:40:03 10° W 18:56:02 38° SW 19:06:38 10° SSE visible
02 May 7.9 03:57:04 33° ESE 03:57:04 33° ESE 04:00:53 10° ENE visible
02 May 10.4 19:45:44 10° WSW 19:55:34 19° SW 20:02:53 10° S visible
03 May 7.1 04:52:26 27° W 04:54:29 51° NNW 05:00:07 10° NE visible
03 May 10.4 18:24:01 10° W 18:39:55 35° SW 18:51:02 10° SSE visible
04 May 8.4 03:43:10 28° ENE 03:43:10 28° ENE 03:45:38 10° ENE visible
04 May 10.5 19:30:26 10° WSW 19:39:57 18° SSW 19:47:18 10° S visible
05 May 7.4 04:38:30 29° WNW 04:39:28 32° NNW 04:44:07 10° NE visible
05 May 10.6 18:08:10 10° W 18:23:50 31° SW 18:35:20 10° SSE visible
06 May 9.1 03:29:12 17° ENE 03:29:12 17° ENE 03:30:20 10° NE visible
06 May 10.6 19:15:15 10° WSW 19:24:25 17° SSW 19:31:42 10° S visible
07 May 8.1 04:24:30 21° NNW 04:24:30 21° NNW 04:28:01 10° NNE visible
08 May 10.7 19:00:09 10° WSW 19:08:58 16° SSW 19:16:10 10° S visible
